Weather Roundup
Issued by NWS Chicago, IL

Home | Current Version | Previous Version | Graphics & Text | Print | Product List | Glossary On
Versions: 1 2 3 4 5 6 7 8 9 10 11 12 13 14 15 16 17 18 19 20 21 22 23 24 25 26 27 28 29 30 31 32 33 34 35 36 37 38 39 40 41 42 43 44 45 46 47 48 49 50
000
NZUS59 KLOT 122058
HRRLOT

CHICAGO AREA WEATHER ROUNDUP
NATIONAL WEATHER SERVICE CHICAGO/ROMEOVILLE IL
400 PM CDT SAT JUL 12 2014

NOTE: "FAIR" INDICATES FEW OR NO CLOUDS BELOW 12,000 FEET WITH NO
SIGNIFICANT WEATHER AND/OR OBSTRUCTIONS TO VISIBILITY.

* THESE STATIONS ARE NOT UNDER NWS QUALITY CONTROL. THEY ALSO MAY NOT
  REPORT WEATHER SUCH AS PRECIPITATION OR FOG.

ILZ005-006-012>014-019>023-122200-
NORTHEAST ILLINOIS

CITY           SKY/WX    TMP DP  RH WIND       PRES   REMARKS
OHARE          CLOUDY    79  69  71 SW13G20   29.97F HX  81
MIDWAY         CLOUDY    79  71  76 SW15      29.97F HX  82
AURORA         CLOUDY    80  73  79 SW13      29.98F HX  84
WAUKEGAN       CLOUDY    79  69  71 SW12G23   29.94F HX  81
DUPAGE AIRPORT CLOUDY    79  72  79 S12       29.98F HX  82
WHEELING       CLOUDY    80  70  71 SW10G24   29.97F HX  83
NORTHERLY IS     N/A     78  68  71 SW9         N/A  HX  80
$$

WIZ051-052-058>065-066-070>072-122200-
SOUTHEAST WISCONSIN

CITY           SKY/WX    TMP DP  RH WIND       PRES   REMARKS
MILWAUKEE      CLOUDY    77  69  76 SW15      29.96F
KENOSHA*       CLOUDY    78  72  81 W12       29.95F HX  80
WAUKESHA       CLOUDY    73  70  88 SW10G16   29.98F
$$

INZ001>003-010>013-019-020-122200-
NORTHWEST INDIANA

CITY           SKY/WX    TMP DP  RH WIND       PRES   REMARKS
GARY*          NOT AVBL
MICHIGAN CITY* NOT AVBL
RENSSELAER*    NOT AVBL
$$

LMZ740>746-122200-
SOUTHERN LAKE MICHIGAN

STATION/POSITION TIME  SKY/WX   TEMP WIND        PRES    VSBY
                                AIR  DIR/SP/G
                 (UTC)          (F)  (DEG/KT/KT) (MB)    (MI)
HARRISON CRIB    2000            76  210/ 25/ 31   N/A
BURNHAM HARBOR   2000            78  190/  9/ 18   N/A
CALUMET HARBOR   2000            76  200/ 11/ 16 1016.1F
BURNS HARBOR     NOT AVBL
MICHIGAN CITY    2000            75  200/ 12/ 16   N/A
$$

ABBREVIATIONS USED IN REMARKS
   TC - TEMPERATURE IN CELSIUS
  WCI - WIND CHILL INDEX
   HX - HEAT INDEX
  VSB - VISIBILITY
$$


USA.gov is the U.S. government's official web portal to all federal, state and local government web resources and services.